Home   Weather   Kirkland Lake   Past weeks

Flag for Canada Past Weather in Kirkland Lake, Ontario, Canada — Yesterday and Last 2 Weeks

Now
12 °F

Overcast.


Feels Like: 1 °F
Forecast: 7 / 14 °F
Wind: 8 mph from Northwest

Location: Earlton

Current Time: Dec 10, 2016 at 4:01:52 am

Latest Report: Dec 10, 2016 at 3:00 am


Visibility: 9 mi

Pressure: 30.34 "Hg

Humidity: 85%

Dew Point: 9 °F

Location of Kirkland LakeLocation

Past Weather in Kirkland Lake — Graph

°F

Kirkland Lake Temperature Yesterday

Maximum temperature yesterday: 19 °F (at 12:00 am)
Minimum temperature yesterday: 12 °F (at 11:00 pm)
Average temperature yesterday: 16 °F

High & Low Weather Summary for the Past Weeks

 TemperatureHumidityPressure
High36 °F (Nov 29, 2:49 pm)100% (Nov 25, 2:00 am)30.34 "Hg (Nov 25, 2:00 am)
Low12 °F (Dec 9, 11:00 pm)64% (Dec 7, 1:00 pm)29.36 "Hg (Dec 1, 5:59 am)
Average28 °F90%29.93 "Hg
* Reported Nov 25 2:00 am — Dec 10 2:00 am, Kirkland Lake, Weather by CustomWeather, © 2016

Note: Actual official high and low records may vary slightly from our data, if they occured in-between our weather recording intervals... More about our weather records

Advertising

Kirkland Lake Weather History for the Previous 24 Hours

Scroll right to see more
 ConditionsComfort  
Time TempWeatherWind HumidityBarometerVisibility
2:00 am
Sat, Dec 10
12 °FOvercast.3 mph85%30.33 "Hg9 mi
1:00 am12 °FOvercast.3 mph85%30.32 "Hg9 mi
12:00 am12 °FOvercast.6 mph85%30.33 "Hg9 mi
11:00 pm
Fri, Dec 9
12 °FOvercast.6 mph85%30.33 "Hg9 mi
10:00 pm14 °FOvercast.5 mph79%30.33 "Hg9 mi
9:51 pm14 °FOvercast.7 mph79%30.33 "Hg9 mi
9:00 pm14 °FLight snow. Overcast.7 mph79%30.34 "Hg9 mi
8:00 pm14 °FOvercast.7 mph79%30.34 "Hg9 mi
7:00 pm14 °FOvercast.7 mph79%30.33 "Hg9 mi
6:00 pm14 °FOvercast.7 mph79%30.33 "Hg9 mi
5:00 pm14 °FOvercast.7 mph85%30.33 "Hg9 mi
4:00 pm16 °FLight snow. Overcast.7 mph79%30.31 "Hg9 mi
3:00 pm18 °FLight snow. Mostly cloudy.9 mph79%30.29 "Hg4 mi
2:00 pm18 °FLight snow. Overcast.10 mph73%30.27 "Hg6 mi
1:03 pm18 °FLight snow. Overcast.14 mph73%30.26 "Hg3 mi
12:00 pm18 °FLight snow. Overcast.16 mph73%30.26 "Hg9 mi
11:00 am18 °FMore clouds than sun.16 mph73%30.26 "Hg9 mi
10:00 am16 °FLight snow. Overcast.13 mph79%30.24 "Hg9 mi
9:00 am16 °FLight snow. Overcast.14 mph79%30.22 "Hg9 mi
8:00 am16 °FOvercast.13 mph73%30.20 "Hg9 mi
7:00 am16 °FLight snow. Overcast.17 mph73%30.17 "Hg9 mi
6:00 am18 °FLight snow. Overcast.17 mph73%30.16 "Hg9 mi
5:01 am18 °FLight snow. Overcast.17 mph79%30.13 "Hg4 mi
4:00 am18 °FLight snow. Overcast.17 mph86%30.11 "Hg9 mi
Weather by CustomWeather, © 2016

See weather overviewHow to use our weather pages